Oak Ridge, TN

6:47 AM EDT on September 25, 2017 (GMT -0400)
Oak Ridge

Weather History for KOQT - November, 2012

Change the Weather History Date:

Saturday, November 10, 2012

  Actual Average (KTYS) Record (KTYS)
Temperature  
Mean Temperature 52 °F -  
Max Temperature 69 °F 61 °F 78 °F (1879)
Min Temperature 35 °F 39 °F 25 °F (1933)
Degree Days  
Heating Degree Days 13    
Growing Degree Days 2 (Base 50)    
Moisture  
Dew Point 35 °F    
Average Humidity 75    
Maximum Humidity 97    
Minimum Humidity 26    
Precipitation  
Precipitation 0.00 in - - ()
Sea Level Pressure  
Sea Level Pressure 30.33 in    
Wind  
Wind Speed 0 mph (SSW)    
Max Wind Speed 5 mph    
Max Gust Speed -    
Visibility 7 miles    
Events Fog    
Averages and records for this station are not official NWS values.
T = Trace of Precipitation, MM = Missing Value Source: NWS Daily Summary

Daily Weather History Graph

Daily Weather History Graph

Search for Another Location

Airport or City:

Trip Planner

Search our weather history database for the weather conditions in past years. The results will help you decide how hot, cold, wet, or windy it might be!

Date:

Astronomy

Nov. 10, 2012 Rise Set
Actual Time 7:08 AM EST 5:32 PM EST
Civil Twilight 6:41 AM EST 5:59 PM EST
Nautical Twilight 6:11 AM EST 6:30 PM EST
Astronomical Twilight 5:40 AM EST 7:00 PM EST
Moon 3:19 AM EST (11/10) 3:13 PM EST (11/10)
Length of Visible Light 11h 17m
Length of Day
10h 23m
Waning Crescent, 14% of the Moon is Illuminated
Nov 10
Waning Crescent
Nov 13
New
Nov 20
First Quarter
Nov 28
Full
Dec 6
Last Quarter

Hourly Weather History & Observations

Time (EST) Temp. Dew Point Humidity Pressure Visibility Wind Dir Wind Speed Gust Speed Precip Events Conditions
12:53 AM 37.9 °F 34.0 °F 86% 30.29 in 10.0 mi Calm Calm - N/A   Clear
1:53 AM 37.0 °F 33.1 °F 86% 30.29 in 10.0 mi Calm Calm - N/A   Clear
2:53 AM 37.0 °F 33.1 °F 86% 30.30 in 10.0 mi Calm Calm - N/A   Clear
3:53 AM 36.0 °F 33.1 °F 89% 30.31 in 10.0 mi Calm Calm - N/A   Clear
4:12 AM 35.6 °F 33.8 °F 93% 30.30 in 8.0 mi Calm Calm - N/A   Scattered Clouds
4:20 AM 35.6 °F 33.8 °F 93% 30.30 in 2.5 mi Calm Calm - N/A   Mostly Cloudy
4:33 AM 35.6 °F 33.8 °F 93% 30.30 in 5.0 mi Calm Calm - N/A   Overcast
4:36 AM 35.6 °F 33.8 °F 93% 30.30 in 1.5 mi Calm Calm - N/A   Overcast
4:45 AM 35.6 °F 33.8 °F 93% 30.31 in 0.5 mi Calm Calm - N/A Fog Fog
4:53 AM 36.0 °F 34.0 °F 93% 30.32 in 0.2 mi Calm Calm - N/A Fog Fog
5:07 AM 35.6 °F 33.8 °F 93% 30.31 in 2.0 mi Calm Calm - N/A   Mostly Cloudy
5:09 AM 35.6 °F 33.8 °F 93% 30.32 in 4.0 mi Calm Calm - N/A   Scattered Clouds
5:53 AM 35.1 °F 33.1 °F 92% 30.35 in 10.0 mi Calm Calm - N/A   Partly Cloudy
6:53 AM 35.1 °F 33.1 °F 92% 30.37 in 7.0 mi Calm Calm - N/A   Mostly Cloudy
6:58 AM 35.6 °F 33.8 °F 93% 30.35 in 1.5 mi Calm Calm - N/A   Mostly Cloudy
7:07 AM 35.6 °F 33.8 °F 93% 30.35 in 0.2 mi Calm Calm - N/A Fog Fog
7:53 AM 36.0 °F 35.1 °F 97% 30.40 in 0.2 mi Calm Calm - N/A Fog Fog
8:19 AM 37.4 °F 35.6 °F 93% 30.38 in 1.5 mi Calm Calm - N/A   Overcast
8:24 AM 37.4 °F 35.6 °F 93% 30.38 in 3.0 mi Calm Calm - N/A   Mostly Cloudy
8:37 AM 39.2 °F 37.4 °F 93% 30.39 in 7.0 mi Calm Calm - N/A   Scattered Clouds
8:53 AM 39.9 °F 37.9 °F 93% 30.42 in 9.0 mi Calm Calm - N/A   Clear
9:53 AM 50.0 °F 41.0 °F 71% 30.40 in 10.0 mi Calm Calm - N/A   Clear
10:53 AM 55.0 °F 37.0 °F 51% 30.39 in 10.0 mi Calm Calm - N/A   Clear
11:53 AM 60.1 °F 36.0 °F 41% 30.36 in 10.0 mi Calm Calm - N/A   Clear
12:53 PM 64.0 °F 37.9 °F 38% 30.32 in 10.0 mi Calm Calm - N/A   Clear
1:53 PM 68.0 °F 36.0 °F 31% 30.29 in 10.0 mi West 4.6 mph - N/A   Clear
2:53 PM 69.1 °F 36.0 °F 30% 30.27 in 10.0 mi South 3.5 mph - N/A   Clear
3:53 PM 69.1 °F 35.1 °F 29% 30.27 in 10.0 mi South 3.5 mph - N/A   Clear
4:53 PM 66.9 °F 30.9 °F 26% 30.27 in 10.0 mi South 3.5 mph - N/A   Clear
5:53 PM 59.0 °F 36.0 °F 42% 30.28 in 10.0 mi Calm Calm - N/A   Clear
6:53 PM 53.1 °F 37.9 °F 57% 30.31 in 10.0 mi Calm Calm - N/A   Clear
7:53 PM 50.0 °F 37.0 °F 61% 30.32 in 10.0 mi Calm Calm - N/A   Clear
8:53 PM 46.9 °F 37.0 °F 68% 30.33 in 10.0 mi Calm Calm - N/A   Clear
9:53 PM 45.0 °F 37.0 °F 74% 30.33 in 10.0 mi Calm Calm - N/A   Clear
10:53 PM 43.0 °F 37.0 °F 80% 30.33 in 10.0 mi Calm Calm - N/A   Clear
11:53 PM 43.0 °F 37.0 °F 80% 30.33 in 10.0 mi Calm Calm - N/A   Clear